This is the latest recevied weather packets stored in our database for station/object N0HEQ. If no packets are shown the sender has not sent any weather packets the latest 10 day(s).
| Time | Temp. | Humidity | Pressure | Rain* | Wind** | Luminosity | Snow |
|---|---|---|---|---|---|---|---|
| 1778031371 | 0° C | 98% | 1016.5 hPa | 0 mm | - | 0 W/m² | - |
| 1778031068 | 0° C | 98% | 1016.5 hPa | 0 mm | - | 1 W/m² | - |
| 1778030764 | 0° C | 98% | 1016.2 hPa | 0 mm | - | 1 W/m² | - |
| 1778030460 | 0° C | 98% | 1016.5 hPa | 0 mm | - | 1 W/m² | - |
| 1778030159 | 0° C | 98% | 1016.5 hPa | 0 mm | - | 2 W/m² | - |
| 1778029854 | 0° C | 97% | 1016.1 hPa | 0 mm | - | 2 W/m² | - |
| 1778029554 | 0° C | 98% | 1016.3 hPa | 0 mm | - | 2 W/m² | - |
| 1778029250 | 0° C | 97% | 1016.3 hPa | 0 mm | - | 3 W/m² | - |
| 1778028947 | 0° C | 97% | 1016.3 hPa | 0 mm | - | 4 W/m² | - |
| 1778028643 | 0° C | 97% | 1016.1 hPa | 0 mm | - | 3 W/m² | - |
| 1778028341 | 0° C | 97% | 1016.2 hPa | 0 mm | - | 4 W/m² | - |
| 1778028037 | 0° C | 97% | 1016.1 hPa | 0 mm | - | 7 W/m² | - |
| 1778027734 | 0° C | 97% | 1016.2 hPa | 0 mm | - | 9 W/m² | - |
| 1778027430 | 0° C | 97% | 1016.2 hPa | 0 mm | - | 12 W/m² | - |
| 1778027126 | 0° C | 97% | 1016.1 hPa | 0 mm | - | 18 W/m² | - |
| 1778026822 | 0° C | 97% | 1015.7 hPa | 0 mm | - | 23 W/m² | - |
| 1778026518 | 0° C | 97% | 1015.7 hPa | 0 mm | - | 17 W/m² | - |
| 1778026216 | 0° C | 97% | 1016 hPa | 0 mm | - | 12 W/m² | - |
| 1778025914 | 0° C | 97% | 1016 hPa | 0 mm | - | 19 W/m² | - |
| 1778025611 | 0° C | 97% | 1015.7 hPa | 0 mm | - | 17 W/m² | - |
| 1778025308 | 0° C | 97% | 1015.5 hPa | 0 mm | - | 17 W/m² | - |
| 1778025004 | 0° C | 97% | 1015.7 hPa | 0 mm | - | 16 W/m² | - |
| 1778024702 | 0° C | 97% | 1015.7 hPa | 0 mm | - | 15 W/m² | - |
| 1778024399 | 0° C | 97% | 1015.9 hPa | 0 mm | - | 16 W/m² | - |
| 1778024096 | 0° C | 97% | 1015.6 hPa | 0 mm | - | 17 W/m² | - |
* Rain latest hour (hover to see other rain measurements)
** Current wind speed in m/s (hover to see current wind gust speed)